Weather History for Angel Fire, NM

Change the Weather History Date:

Wednesday, November 7, 2012

  Actual Average (KSKX) Record (KSKX)
Temperature  
Mean Temperature 36 °F -  
Max Temperature 62 °F 50 °F 68 °F (2004)
Min Temperature 10 °F 22 °F 8 °F (2008)
Degree Days  
Heating Degree Days 29    
Moisture  
Dew Point 1 °F    
Average Humidity 35    
Maximum Humidity 76    
Minimum Humidity 4    
Precipitation  
Precipitation 0.00 in - - ()
Sea Level Pressure  
Sea Level Pressure 30.31 in    
Wind  
Wind Speed 3 mph (WSW)    
Max Wind Speed 17 mph    
Max Gust Speed 25 mph    
Visibility 10 miles    
Events      
Averages and records for this station are not official NWS values.
T = Trace of Precipitation, MM = Missing Value Source: NWS Daily Summary

Daily Weather History Graph

Daily Weather History Graph

Search for Another Location

Airport:

Trip Planner

Search our weather history database for the weather conditions in past years. The results will help you decide how hot, cold, wet, or windy it might be!

Date:

Astronomy

Nov. 07, 2012 Rise Set
Actual Time 6:30 AM MST 4:58 PM MST
Civil Twilight 6:03 AM MST 5:25 PM MST
Nautical Twilight 5:33 AM MST 5:56 PM MST
Astronomical Twilight 5:02 AM MST 6:26 PM MST
Moon No Moon Rise 12:58 PM MST (11/7)
Length of Visible Light 11h 21m
Length of Day
10h 27m
Last Quarter, 42% of the Moon is Illuminated
Nov 7
Last Quarter
Nov 13
New
Nov 20
First Quarter
Nov 28
Full
Dec 6
Last Quarter

Hourly Weather History & Observations

Time (MST) Temp. Windchill Dew Point Humidity Pressure Visibility Wind Dir Wind Speed Gust Speed Precip Events Conditions
12:15 AM 22.1 °F - 11.5 °F 64% 30.43 in 10.0 mi Calm Calm - N/A   Clear
12:35 AM 19.2 °F - 10.2 °F 68% 30.42 in 10.0 mi Calm Calm - N/A   Clear
12:55 AM 17.1 °F - 8.2 °F 68% 30.41 in 10.0 mi Calm Calm - N/A   Clear
1:15 AM 20.5 °F - 10.2 °F 65% 30.41 in 10.0 mi Calm Calm - N/A   Clear
1:55 AM 17.2 °F - 8.4 °F 68% 30.41 in 10.0 mi Calm Calm - N/A   Clear
2:15 AM 17.6 °F - 8.8 °F 68% 30.41 in 10.0 mi Calm Calm - N/A   Clear
2:35 AM 15.8 °F - 7.3 °F 69% 30.40 in 10.0 mi Calm Calm - N/A   Clear
2:55 AM 16.7 °F - 7.7 °F 68% 30.40 in 10.0 mi Calm Calm - N/A   Clear
3:15 AM 19.2 °F 11.3 °F 10.9 °F 70% 30.39 in 10.0 mi SE 5.8 mph - N/A   Clear
3:35 AM 16.0 °F - 8.6 °F 73% 30.39 in 10.0 mi Calm Calm - N/A   Clear
3:55 AM 17.2 °F - 8.8 °F 69% 30.39 in 10.0 mi Calm Calm - N/A   Clear
4:15 AM 15.1 °F - 8.4 °F 75% 30.39 in 10.0 mi Calm Calm - N/A   Clear
4:35 AM 13.8 °F - 6.8 °F 74% 30.39 in 10.0 mi Calm Calm - N/A   Clear
5:15 AM 14.9 °F 9.2 °F 8.2 °F 75% 30.39 in 10.0 mi SE 3.5 mph - N/A   Clear
5:35 AM 12.7 °F - 6.4 °F 76% 30.39 in 10.0 mi Calm Calm - N/A   Clear
5:55 AM 11.8 °F - 5.0 °F 74% 30.39 in 10.0 mi Calm Calm - N/A   Clear
6:15 AM 14.7 °F - 7.0 °F 71% 30.39 in 10.0 mi Calm Calm - N/A   Clear
6:35 AM 10.9 °F - 4.8 °F 76% 30.39 in 10.0 mi Calm Calm - N/A   Clear
6:55 AM 12.2 °F - 6.1 °F 76% 30.39 in 10.0 mi Calm Calm - N/A   Clear
7:15 AM 13.8 °F - 6.8 °F 74% 30.39 in 10.0 mi Calm Calm - N/A   Clear
7:35 AM 21.0 °F - 10.6 °F 64% 30.40 in 10.0 mi Calm Calm - N/A   Clear
7:55 AM 26.2 °F - 13.6 °F 59% 30.40 in 10.0 mi Calm Calm - N/A   Clear
8:15 AM 31.1 °F - 14.7 °F 51% 30.40 in 10.0 mi Calm Calm - N/A   Clear
8:35 AM 32.2 °F - 15.1 °F 49% 30.38 in 10.0 mi Calm Calm - N/A   Clear
8:55 AM 35.8 °F - 14.7 °F 42% 30.38 in 10.0 mi Calm Calm - N/A   Clear
9:15 AM 39.6 °F - 14.0 °F 35% 30.36 in 10.0 mi Calm Calm - N/A   Clear
9:35 AM 44.6 °F - 13.3 °F 28% 30.36 in 10.0 mi Calm Calm - N/A   Clear
9:55 AM 51.8 °F - 11.3 °F 20% 30.35 in 10.0 mi Calm Calm - N/A   Clear
10:15 AM 57.4 °F - -0.2 °F 10% 30.33 in 10.0 mi WSW 5.8 mph - N/A   Clear
10:35 AM 60.3 °F - -15.2 °F 4% 30.33 in 10.0 mi WSW 13.8 mph 24.2 mph N/A   Clear
10:55 AM 60.8 °F - -14.6 °F 4% 30.32 in 10.0 mi WSW 17.3 mph 21.9 mph N/A   Clear
11:15 AM 60.6 °F - -15.5 °F 4% 30.31 in 10.0 mi West 15.0 mph 24.2 mph N/A   Clear
11:35 AM 61.2 °F - -15.3 °F 4% 30.30 in 10.0 mi West 11.5 mph 24.2 mph N/A   Clear
11:55 AM 61.0 °F - -16.6 °F 4% 30.28 in 10.0 mi WSW 11.5 mph 25.3 mph N/A   Clear
12:15 PM 61.5 °F - -20.2 °F 4% 30.27 in 10.0 mi WSW 11.5 mph 24.2 mph N/A   Clear
12:35 PM 61.7 °F - -17.9 °F 4% 30.26 in 10.0 mi WSW 15.0 mph 21.9 mph N/A   Clear
12:55 PM 62.2 °F - -16.8 °F 4% 30.25 in 10.0 mi West 17.3 mph - N/A   Clear
1:15 PM 62.1 °F - -15.3 °F 4% 30.24 in 10.0 mi West 16.1 mph 23.0 mph N/A   Clear
1:35 PM 62.6 °F - -15.2 °F 4% 30.23 in 10.0 mi West 17.3 mph 21.9 mph N/A   Clear
1:55 PM 62.8 °F - -15.5 °F 4% 30.23 in 10.0 mi West 10.4 mph 23.0 mph N/A   Clear
2:15 PM 62.6 °F - -14.6 °F 4% 30.23 in 10.0 mi West 13.8 mph 19.6 mph N/A   Clear
2:35 PM 62.4 °F - -15.3 °F 4% 30.23 in 10.0 mi WSW 16.1 mph 21.9 mph N/A   Clear
2:55 PM 62.1 °F - -13.9 °F 4% 30.23 in 10.0 mi West 9.2 mph - N/A   Clear
3:15 PM 60.8 °F - -12.8 °F 5% 30.23 in 10.0 mi WNW 6.9 mph - N/A   Clear
3:35 PM 60.8 °F - -12.5 °F 5% 30.23 in 10.0 mi West 11.5 mph 17.3 mph N/A   Clear
3:55 PM 60.1 °F - -12.1 °F 5% 30.23 in 10.0 mi WSW 6.9 mph - N/A   Clear
4:15 PM 59.2 °F - -12.5 °F 5% 30.23 in 10.0 mi WSW 6.9 mph - N/A   Clear
4:35 PM 57.4 °F - -9.0 °F 6% 30.22 in 10.0 mi WSW 3.5 mph - N/A   Clear
4:55 PM 55.4 °F - -5.8 °F 8% 30.22 in 10.0 mi Calm Calm - N/A   Clear
5:15 PM 50.7 °F - -2.4 °F 11% 30.22 in 10.0 mi Calm Calm - N/A   Clear
5:35 PM 48.7 °F - -0.9 °F 13% 30.23 in 10.0 mi NW 5.8 mph - N/A   Clear
5:55 PM 43.2 °F - 2.8 °F 19% 30.24 in 10.0 mi Calm Calm - N/A   Clear
6:15 PM 39.2 °F - 3.6 °F 23% 30.24 in 10.0 mi Calm Calm - N/A   Clear
6:35 PM 38.7 °F - 3.0 °F 23% 30.25 in 10.0 mi Calm Calm - N/A   Clear
6:55 PM 35.6 °F 32.8 °F 3.2 °F 26% 30.24 in 10.0 mi WNW 3.5 mph - N/A   Clear
7:15 PM 32.5 °F - 5.7 °F 32% 30.24 in 10.0 mi Calm Calm - N/A   Clear
7:35 PM 35.4 °F 30.5 °F 5.7 °F 29% 30.25 in 10.0 mi ENE 5.8 mph - N/A   Clear
7:55 PM 39.0 °F - 4.6 °F 24% 30.25 in 10.0 mi Calm Calm - N/A   Clear
8:15 PM 34.3 °F - 6.3 °F 31% 30.25 in 10.0 mi Calm Calm - N/A   Clear
8:35 PM 32.9 °F - 6.6 °F 33% 30.25 in 10.0 mi Calm Calm - N/A   Clear
8:55 PM 32.5 °F 29.3 °F 6.4 °F 33% 30.24 in 10.0 mi SSW 3.5 mph - N/A   Clear
9:15 PM 34.2 °F 30.0 °F 6.8 °F 32% 30.24 in 10.0 mi South 4.6 mph - N/A   Clear
9:35 PM 35.1 °F 30.1 °F 6.6 °F 31% 30.23 in 10.0 mi SE 5.8 mph - N/A   Clear
9:55 PM 36.5 °F 32.7 °F 7.0 °F 29% 30.23 in 10.0 mi South 4.6 mph - N/A   Clear
10:15 PM 37.2 °F 30.6 °F 7.3 °F 29% 30.22 in 10.0 mi SSE 9.2 mph - N/A   Clear
10:35 PM 36.7 °F - 7.2 °F 29% 30.22 in 10.0 mi Calm Calm - N/A   Clear
10:55 PM 33.8 °F 27.0 °F 7.9 °F 34% 30.22 in 10.0 mi SE 8.1 mph - N/A   Clear
11:15 PM 34.0 °F - 8.8 °F 35% 30.22 in 10.0 mi Calm Calm - N/A   Clear
11:35 PM 29.1 °F 24.1 °F 8.1 °F 41% 30.22 in 10.0 mi West 4.6 mph - N/A   Clear